Location: Caucaguita
(10.3578°N, 66.8025°W)
Time: 01:43:21
(UTC+00:00)

Ariane 3 Deb - Pass Details

Date: 18 November 2025
Orbit: 497 x 17577 km, 6.7° (Epoch: 09 December)

Event Time Altitude Azimuth Distance (km) Brightness Sun altitude
Rises 22:47:40 0° 235° (SW) 2,576 7.4 -11.6°
Reaches altitude 10° 22:49:53 10° 214° (SW) 1,708 5.7 -12.1°
Maximum altitude 22:52:30 20° 161° (SSE) 1,407 4.4 -12.8°
Drops below altitude 10° 22:56:32 10° 111° (ESE) 2,741 5.4 -13.7°
Enters shadow 22:56:38 10° 111° (ESE) 2,790 5.4 -13.7°
